Weather History for Campo, CA

Change the Weather History Date:

Friday, August 31, 2012

  Actual Average Record
Temperature  
Mean Temperature 76 °F 73 °F  
Max Temperature 91 °F 94 °F 105 °F (1998)
Min Temperature 61 °F 52 °F 37 °F (1979)
Degree Days  
Heating Degree Days 0 0  
Month to date heating degree days 0 0  
Since 1 June heating degree days 65 70  
Since 1 July heating degree days 9 14  
Cooling Degree Days 11 8  
Month to date cooling degree days 383 278  
Year to date cooling degree days 654 650  
Since 1 June cooling degree days 631 620  
Growing Degree Days 26 (Base 50)    
Moisture  
Dew Point 54 °F    
Average Humidity 60    
Maximum Humidity 90    
Minimum Humidity 29    
Precipitation  
Precipitation 0.00 in 0.02 in 0.11 in (2007)
Month to date precipitation 0.55 0.70  
Year to date precipitation 6.95 11.17  
Since 1 July precipitation 0.90 1.02  
Snow  
Snow 0.00 in - - ()
Month to date snowfall 0.0  
Year to date snowfall 0.0  
Since 1 July snowfall 0.0  
Snow Depth 0.00 in    
Sea Level Pressure  
Sea Level Pressure 29.83 in    
Wind  
Wind Speed 5 mph (NNW)    
Max Wind Speed 20 mph    
Max Gust Speed 30 mph    
T = Trace of Precipitation, MM = Missing Value Source: NWS Daily Summary

Daily Weather History Graph

Daily Weather History Graph

Search for Another Location

Airport:

Trip Planner

Search our weather history database for the weather conditions in past years. The results will help you decide how hot, cold, wet, or windy it might be!

Date:

Astronomy

Aug. 31, 2012 Rise Set
Actual Time 6:20 AM PDT 7:11 PM PDT
Civil Twilight 5:55 AM PDT 7:36 PM PDT
Nautical Twilight 5:25 AM PDT 8:05 PM PDT
Astronomical Twilight 4:55 AM PDT 8:36 PM PDT
Moon 7:05 PM PDT (8/31) 6:26 AM PDT (8/31)
Length of Visible Light 13h 40m
Length of Day
12h 50m
Full, 100% of the Moon is Illuminated
Aug 31
Full
Sep 8
Last Quarter
Sep 15
New
Sep 22
First Quarter
Sep 29
Full

Hourly Weather History & Observations

Time (PDT) Temp. Heat Index Dew Point Humidity Pressure Visibility Wind Dir Wind Speed Gust Speed Precip Events Conditions
2:52 AM 63.0 °F - 59.0 °F 87% 29.81 in - NNE 3.5 mph - N/A   Unknown
3:52 AM 62.1 °F - 59.0 °F 90% 29.81 in - NE 3.5 mph - N/A   Unknown
4:52 AM 62.1 °F - 57.9 °F 86% 29.80 in - ENE 5.8 mph - N/A   Unknown
5:52 AM 62.1 °F - 57.9 °F 86% 29.82 in - ENE 4.6 mph - N/A   Unknown
6:52 AM 63.0 °F - 59.0 °F 87% 29.84 in - Calm Calm - N/A   Unknown
7:52 AM 71.1 °F - 62.1 °F 73% 29.84 in - Calm Calm - N/A   Unknown
8:52 AM 77.0 °F - 61.0 °F 58% 29.84 in - Calm Calm - N/A   Unknown
9:52 AM 82.0 °F 82.1 °F 59.0 °F 45% 29.85 in - Calm Calm - N/A   Unknown
10:52 AM 84.9 °F 84.2 °F 57.9 °F 40% 29.85 in - SSW 4.6 mph - N/A   Unknown
11:52 AM 88.0 °F 86.9 °F 57.9 °F 36% 29.83 in - Variable 3.5 mph - N/A   Unknown
12:52 PM 88.0 °F 86.5 °F 55.9 °F 34% 29.83 in - Variable 4.6 mph - N/A   Unknown
1:52 PM 90.0 °F 88.1 °F 55.9 °F 31% 29.81 in - WSW 12.7 mph 17.3 mph N/A   Unknown
2:52 PM 90.0 °F 87.7 °F 54.0 °F 29% 29.80 in - SW 11.5 mph 24.2 mph N/A   Unknown
3:52 PM 88.0 °F 86.5 °F 55.9 °F 34% 29.81 in - WSW 11.5 mph - N/A   Unknown
4:52 PM 88.0 °F 86.1 °F 55.0 °F 32% 29.80 in - WNW 13.8 mph 18.4 mph N/A   Unknown
5:52 PM 86.0 °F - 46.9 °F 26% 29.81 in - WNW 11.5 mph 18.4 mph N/A   Unknown
6:52 PM 82.9 °F - 46.0 °F 27% 29.81 in - NW 10.4 mph - N/A   Unknown
7:52 PM 80.1 °F - 46.0 °F 30% 29.82 in - NNW 4.6 mph - N/A   Unknown
8:52 PM 73.9 °F - 44.1 °F 34% 29.84 in - Calm Calm - N/A   Unknown
9:52 PM 66.0 °F - 46.0 °F 48% 29.85 in - Calm Calm - N/A   Unknown
10:52 PM 64.0 °F - 46.0 °F 52% 29.86 in - NE 3.5 mph - N/A   Unknown
11:52 PM 61.0 °F - 45.0 °F 56% 29.86 in - NNE 3.5 mph - N/A   Unknown